Tracking 29487 objects as of 11-Sep-2024
HD Live streaming from Space Station
objects crossing your sky now

COSMOS 1691 DEB

Track COSMOS 1691 DEB now!
10-day predictions


NORAD ID: 43316
Int'l Code: 1985-094AA
Perigee: 1,374.5 km
Apogee: 1,398.5 km
Inclination: 82.6 °
Period: 113.3 minutes
Semi major axis: 7757 km
RCS: Unknown
Launch date: October 9, 1985
Source: Commonwealth of Independent States (former USSR) (CIS)
Launch site: PLESETSK MISSILE AND SPACE COMPLEX (PKMTR)

Note: This is SATELLITE DEBRIS
Your satellite tracking list
Your tracking list is empty




NASA's NSSDC Master Catalog

Two Line Element Set (TLE):
1 43316U 85094AA  24253.74483063  .00000766  00000-0  37713-2 0  9996
2 43316  82.5992 261.6662 0015504  81.2065 279.0786 12.70630260994299
Source of the keplerian elements: AFSPC